SCP
0 0 0 0 0 0 0 0 0 0 0 0 0 0 0 0 0 0 0 0 0 0 0 0 0 0 0 0 0 0 0 0 0 0 -0 -0 -0 -0 -0 0 0 0 0 0
0 0 0 0 0 0 0 0 0 0 0 0 0 0 0 0 0 0 0 0 0 0 0 0 0 0 0 0 0 0 0 0 0 0 -0 -0 -0 0 0 0 -0 -0 0 0
0 0 0 0 0 0 0 0 0 0 0 0 0 0 0 0 0 0 0 0 0 0 0 0 0 0 0 0 0 0 0 0 0 0 0 0 0 0 0 0 0 0 -0 -0
0 0 0 0 0 0 0 0 0 0 0 0 0 0 0 0 0 0 0 0 0 0 0 0 0 0 -0 0 0 0 0 0 0 0 -0 0 0 0 -0 0 0 0 0 0
0 0 0 0 0 0 0 0 0 0 0 0 0 0 0 0 0 0 0 0 0 0 0 0 -0 0 0 0 0 0 0 0 0 0 0 -0 -0 -0 -0 -0 -0 -0 -0 -0
0 0 0 0 0 0 0 0 0 0 0 0 0 0 0 0 0 0 0 0 0 0 0 0 0 -0 -0 0 0 0 0 0 0 0 -0 -0 -0 -0 -0 -0 -0 -0 0 0
0 0 0 0 0 0 0 0 0 0 0 0 0 0 0 0 0 0 0 0 0 0 0 -0 0 0 0 0 0 0 0 0 0 0 -0 0 -0 -0 -0 0 -0 0 0 0
0 0 0 0 0 0 0 0 0 0 0 0 0 0 0 0 0 0 0 0 0 0 0 0 0 0 0 0 0 0 0 0 0 0 0 0 0 0 0 0 0 0 0 0
0 0 0 0 0 0 0 0 0 0 0 0 0 0 0 0 0 0 0 0 0 0 0 0 0 0 0 0 0 0 0 -0 0 0 0 0 0 0 -0 -0 0 0 -0 -0
0 0 0 0 0 0 0 0 0 0 0 0 0 0 0 0 0 0 0 0 0 0 0 0 0 0 0 0 0 0 0 0 0 0 0 0 0 -0 0 0 0 0 -0 0
0 0 0 0 0 0 0 0 0 0 0 0 0 0 0 0 0 0 0 0 0 0 0 0 0 0 0 0 0 0 0 0 0 0 0 0 0 0 0 0 0 0 0 0
0 0 0 0 0 0 0 0 0 0 0 0 0 0 0 0 0 0 0 0 0 0 0 0 0 0 0 0 0 0 0 0 0 0 0 0 0 0 0 0 0 0 0 0
0 0 0 0 0 0 0 0 0 0 0 0 0 0 0 0 0 0 0 0 0 0 0 0 0 0 0 0 0 0 0 0 0 0 0 0 0 0 0 0 0 0 0 0
0 0 0 0 0 0 0 0 0 0 0 0 0 0 0 0 0 0 0 0 0 0 0 0 0 0 0 0 0 0 0 0 0 0 0 0 0 0 0 0 0 0 0 0
0 0 0 0 0 0 0 0 0 0 0 0 0 0 0 0 0 0 0 0 0 0 0 0 0 0 0 0 0 0 0 0 0 0 0 0 0 0 0 0 0 0 0 0
0 0 0 0 0 0 0 0 0 0 0 0 0 0 0 0 0 0 0 0 0 0 0 0 0 0 0 0 0 0 0 0 0 0 0 0 0 0 0 0 0 0 0 0
0 0 0 0 0 0 0 0 0 0 0 0 0 0 0 0 0 0 0 0 0 0 0 0 0 0 0 0 -0 0 0 0 0 0 0 0 0 0 0 0 0 0 0 0
0 0 0 0 0 0 0 0 0 0 0 0 0 0 0 0 0 0 0 0 0 0 0 0 0 0 0 -0 0 0 -0 0 0 0 0 0 0 0 0 0 0 0 0 0
0 0 0 0 0 0 0 0 0 0 0 0 0 0 0 0 0 0 0 0 0 0 0 0 0 0 0 0 0 0 0 0 0 0 0 0 -0 0 0 0 0 0 0 0
0 0 0 0 0 0 0 0 0 0 0 0 0 0 0 0 0 0 0 0 0 0 0 0 0 0 0 0 0 0 0 0 0 0 0 0 0 0 0 0 0 0 0 0
0 0 0 0 0 0 0 0 0 0 0 0 0 0 0 0 0 0 0 0 0 0 0 0 0 0 0 0 0 0 0 0 0 -0 0 0 0 0 0 0 0 0 0 0
0 0 0 0 0 0 0 0 0 0 0 0 0 0 0 0 0 0 0 0 0 0 0 0 0 0 0 0 0 0 0 0 0 0 0 0 0 0 0 0 0 0 0 -0
0 0 0 0 0 0 0 0 0 0 0 0 0 0 0 0 0 0 0 0 0 0 0 0 0 0 0 0 0 0 0 0 0 0 0 0 0 0 0 0 0 0 -0 0
0 0 0 0 0 0 0 0 0 0 0 0 0 0 0 0 0 0 0 0 0 0 0 0 0 0 0 0 0 0 0 0 0 0 0 0 0 0 0 0 0 0 -0 -0
0 0 0 0 0 0 0 0 0 0 0 0 0 0 0 0 0 0 0 0 0 0 0 0 0 0 0 0 -0 -0 -0 0 0 0 0 0 0 0 0 0 0 -0 -0 -0
0 0 0 0 0 0 0 0 0 0 0 0 0 0 0 0 0 0 0 0 0 0 0 0 0 0 0 -0 0 0 0 0 0 0 0 0 0 0 0 0 0 -0 -0 -0
0 0 0 0 0 0 0 0 0 0 0 0 0 0 0 0 0 0 0 0 0 0 0 0 0 0 0 0 0 0 0 0 0 0 0 0 0 0 0 0 0 0 -0 -0
Wind_Speed_500mb
35 31 28 24 21 21 17 12 7 9 8 6 3 4 2 8 8 4 5 7 10 10 10 14 9 11 12 8 16 8 6 6 2 9 17 12 14 11 11 7 5 5 5 7
39 34 30 27 20 18 13 9 7 8 2 5 3 4 7 8 6 5 5 4 3 6 9 10 8 10 8 11 11 11 5 3 7 7 14 3 8 4 3 3 4 4 2 6
43 38 35 29 22 17 7 4 5 1 2 3 3 8 8 6 6 8 6 7 2 9 7 3 14 14 8 30 7 13 12 6 8 11 13 5 10 6 4 7 5 2 11 16
47 41 39 32 26 20 9 7 4 3 3 3 4 3 4 11 8 5 5 6 8 7 9 18 6 11 24 12 7 11 7 12 6 18 22 14 17 14 9 10 14 10 10 8
50 45 44 37 32 26 21 8 7 4 4 2 8 6 4 7 7 6 8 10 9 7 11 17 28 15 14 12 7 20 6 8 11 9 3 5 13 16 14 16 13 17 21 25
54 50 48 42 39 33 21 23 16 6 7 7 7 6 5 2 4 6 14 14 15 22 21 16 35 42 44 37 22 14 9 9 9 5 6 14 3 9 2 4 6 10 10 8
59 53 52 48 43 39 34 22 14 8 8 15 11 9 11 11 14 17 23 27 24 11 34 42 40 30 26 22 21 24 12 13 6 8 14 2 7 4 5 9 8 9 15 7
64 59 56 51 49 46 44 31 22 11 10 18 13 20 18 16 16 14 20 27 16 26 24 9 11 7 9 4 2 11 15 9 6 6 6 4 3 5 6 8 8 12 5 4
68 62 58 56 54 48 46 39 32 19 10 15 16 12 12 10 8 7 7 9 16 5 6 6 6 6 8 4 5 6 5 11 8 4 3 3 5 2 2 4 7 7 2 7
68 63 62 60 57 51 45 37 38 29 14 19 18 12 8 11 5 5 6 8 4 3 4 7 7 9 4 7 6 5 5 6 11 9 6 2 3 4 3 2 8 4 0 6
70 68 65 63 59 52 47 45 37 42 16 22 25 31 17 11 9 7 2 6 4 5 7 4 3 5 3 8 6 4 5 6 6 4 4 2 2 2 4 4 3 2 2 6
74 70 66 63 60 55 47 42 40 43 25 12 21 38 38 31 18 14 4 4 6 4 4 3 4 6 5 5 6 4 6 4 5 7 5 4 9 13 10 8 5 3 4 7
77 72 66 65 62 54 49 46 39 40 22 27 33 36 42 38 30 29 15 9 10 4 3 1 2 11 3 7 7 9 5 1 6 7 5 4 8 12 13 16 18 14 11 10
81 72 69 67 58 51 50 48 40 45 12 7 11 22 20 19 26 46 45 20 12 9 2 6 6 6 7 6 7 6 6 6 4 11 19 7 2 11 28 25 16 18 16 12
84 76 73 67 57 50 44 41 40 47 26 4 8 20 19 26 25 21 34 43 32 21 13 11 8 8 8 19 8 23 28 20 11 10 3 7 20 16 40 34 21 17 18 19
89 78 75 69 61 54 47 23 47 51 46 4 5 9 12 17 20 34 27 29 27 22 14 12 12 18 8 8 13 14 38 50 50 44 17 17 32 40 31 25 18 19 22 21
90 81 78 70 67 66 61 20 14 59 45 9 7 7 7 16 17 19 17 26 15 21 13 14 21 15 13 10 27 33 38 34 32 34 26 27 19 10 22 15 14 23 26 26
90 83 77 70 68 70 56 21 12 57 34 12 5 5 5 18 10 10 15 15 17 16 17 7 12 14 16 11 19 33 51 60 64 69 61 47 42 44 27 20 23 32 34 37
87 86 76 70 63 43 48 30 35 59 18 14 11 7 6 19 8 8 12 11 9 7 10 11 11 11 15 28 39 40 38 28 31 33 38 42 43 34 26 25 33 35 41 44
99 92 57 19 33 52 54 36 35 24 21 12 12 13 8 16 14 10 11 7 5 5 9 6 8 16 62 60 57 55 56 52 48 38 33 34 33 34 34 35 36 38 45 48
94 40 24 55 74 44 22 14 14 16 8 19 24 40 15 18 9 7 11 5 6 5 4 6 7 8 12 17 27 32 38 48 62 61 54 36 39 34 34 37 41 45 49 51
91 56 81 59 22 13 12 11 12 12 16 23 22 23 46 14 10 6 11 7 5 10 4 6 7 8 18 31 41 44 37 39 42 54 53 47 35 18 25 38 50 51 53 53
99 46 20 19 15 14 20 27 12 15 23 27 30 19 25 14 9 7 7 9 11 5 7 8 10 14 29 38 41 56 44 39 36 45 46 47 54 44 32 44 54 58 57 54
23 22 22 17 17 20 14 21 19 21 36 59 56 34 15 12 10 8 8 8 3 7 8 11 6 20 34 39 42 39 39 29 29 42 45 47 45 44 44 56 64 65 61 55
16 21 18 20 14 15 43 57 39 36 74 74 37 15 11 9 9 7 7 10 12 12 8 4 15 27 30 36 38 28 23 14 15 30 40 39 46 53 59 63 65 62 58 53
24 17 14 24 24 14 42 48 46 68 82 61 15 11 11 10 10 11 15 9 13 5 6 12 15 22 26 36 34 26 18 11 16 25 36 48 56 65 71 69 64 57 52 46
21 12 24 33 38 53 58 50 54 79 76 16 12 13 12 12 9 13 9 10 7 17 9 6 8 19 28 29 23 23 25 26 25 33 42 53 64 73 74 71 63 55 46 37
Wind_Direction_500mb
250 256 264 272 282 303 328 329 283 299 320 268 316 267 282 316 290 272 280 273 277 288 322 298 295 313 333 1 322 312 183 312 140 285 318 285 282 312 291 288 125 31 360 41
244 249 254 259 267 285 317 302 268 297 301 286 285 289 272 267 281 299 303 280 357 300 292 299 274 317 358 4 327 326 321 186 288 190 354 119 296 320 327 49 327 92 116 77
241 244 248 251 252 261 274 278 269 203 78 148 278 307 288 277 265 272 297 299 279 326 285 250 299 306 322 332 324 303 298 271 281 310 314 276 298 287 270 296 283 143 248 292
238 239 242 241 238 239 220 215 241 258 271 202 221 257 299 289 294 245 267 171 69 360 302 309 265 314 322 316 345 335 297 289 299 288 290 278 274 293 275 252 279 275 352 297
233 234 236 232 228 222 207 209 201 225 200 212 244 199 217 260 278 276 276 271 327 306 279 295 300 317 322 307 297 335 333 283 306 312 92 336 285 284 280 276 277 270 283 289
232 232 231 228 224 212 206 211 221 219 184 190 220 236 210 230 260 247 265 299 316 301 313 303 289 284 273 270 287 300 291 303 309 300 291 305 206 24 303 296 268 293 270 26
230 227 228 224 220 215 211 206 191 195 244 218 225 216 221 221 237 274 290 290 286 300 308 305 280 262 259 249 241 233 283 294 281 297 308 67 40 335 305 293 314 314 273 319
230 226 225 222 219 214 212 219 204 190 262 230 223 223 246 268 264 254 261 286 269 294 306 288 289 245 204 144 133 205 229 281 282 295 313 11 107 29 11 359 27 354 326 114
227 224 223 220 217 213 213 217 221 218 264 233 237 191 212 256 264 253 230 288 306 317 275 270 271 288 335 254 187 108 194 244 272 275 279 65 35 56 188 215 62 28 341 172
223 219 219 217 215 212 213 221 224 216 240 246 195 205 201 172 170 262 290 324 284 346 231 249 250 252 316 274 267 190 193 213 235 243 269 252 345 287 245 304 30 8 263 182
220 216 215 214 212 210 214 226 224 214 228 250 233 235 207 192 210 241 64 268 182 229 234 268 280 268 358 287 289 261 251 203 207 166 244 153 118 229 332 45 13 311 271 207
217 214 212 211 208 209 214 220 220 219 225 258 248 241 241 236 228 200 198 310 303 312 260 204 288 260 243 299 272 185 248 294 332 236 84 24 306 279 289 287 293 308 282 258
214 212 208 206 205 208 214 217 209 208 232 266 255 253 258 245 244 231 224 227 226 220 170 309 305 262 259 256 239 296 180 226 253 295 158 228 323 332 322 277 260 261 271 254
212 207 205 201 202 204 209 209 209 210 187 250 251 254 257 246 235 225 221 229 190 182 163 267 253 248 208 262 322 274 313 286 241 270 272 259 160 11 349 333 293 249 238 222
209 205 203 198 199 197 199 209 215 214 203 212 278 299 253 236 236 226 220 216 223 237 237 236 235 252 258 249 270 241 222 226 219 240 166 302 294 312 318 312 296 236 208 190
205 202 200 195 191 187 180 205 221 212 212 229 280 255 244 235 218 216 209 204 206 214 217 237 239 241 253 255 257 285 242 242 251 258 254 251 293 302 305 292 271 211 190 181
202 199 195 191 190 186 177 190 205 198 186 185 259 253 227 221 207 189 190 192 196 210 227 237 243 238 221 253 257 276 275 269 259 260 250 270 284 294 306 286 235 188 178 170
197 193 189 189 188 190 188 176 192 172 168 180 238 232 231 188 180 159 169 179 191 217 232 226 229 243 224 255 247 244 253 254 257 256 254 262 279 285 277 246 206 183 173 166
189 185 182 183 186 182 183 176 168 171 175 188 192 198 198 173 155 138 162 183 187 188 230 229 221 223 230 236 244 245 248 243 251 267 259 248 256 258 242 218 191 183 171 166
182 174 165 176 171 168 167 152 172 177 215 220 210 187 185 174 170 159 152 181 232 227 211 198 230 251 254 259 264 268 264 260 261 261 245 244 232 234 219 209 194 188 177 168
162 166 152 146 146 146 157 172 176 187 216 204 200 194 147 187 175 155 189 159 172 246 151 242 238 257 254 283 288 286 280 266 255 252 248 244 247 222 203 199 191 184 177 170
173 152 134 134 138 149 166 186 183 197 204 181 181 183 195 158 161 145 169 202 181 243 144 245 252 244 272 318 321 319 301 285 261 242 239 231 208 226 232 201 184 179 173 171
140 134 160 140 160 182 198 182 177 186 172 165 153 136 152 151 171 125 164 185 219 140 222 231 238 266 311 316 314 313 306 285 260 240 229 226 228 229 224 194 179 176 171 169
139 152 142 190 184 214 189 176 144 161 151 147 146 135 140 146 170 151 205 193 165 233 234 231 229 296 308 321 323 317 316 292 254 226 212 220 220 210 200 186 176 173 169 167
127 133 192 194 171 146 161 150 142 154 148 145 140 112 118 133 155 198 171 186 226 226 236 217 305 306 308 322 341 341 333 303 227 197 190 195 200 184 171 170 170 170 166 163
154 180 153 153 140 144 163 162 144 150 150 144 132 140 152 179 165 165 208 202 221 214 212 254 305 312 319 349 353 7 19 79 123 148 161 167 166 163 160 162 165 166 166 164
161 179 162 156 137 159 164 154 151 157 153 151 141 143 169 127 177 190 186 212 189 170 208 264 311 345 4 3 17 33 44 68 101 127 141 150 155 157 156 156 160 162 160 160
Wind_Speed_850mb
35 31 28 24 21 21 17 12 7 9 8 6 3 4 2 8 8 4 5 7 10 10 10 14 9 11 12 8 16 8 6 6 2 9 17 12 14 11 11 7 5 5 5 7
39 34 30 27 20 18 13 9 7 8 2 5 3 4 7 8 6 5 5 4 3 6 9 10 8 10 8 11 11 11 5 3 7 7 14 3 8 4 3 3 4 4 2 6
43 38 35 29 22 17 7 4 5 1 2 3 3 8 8 6 6 8 6 7 2 9 7 3 14 14 8 30 7 13 12 6 8 11 13 5 10 6 4 7 5 2 11 16
47 41 39 32 26 20 9 7 4 3 3 3 4 3 4 11 8 5 5 6 8 7 9 18 6 11 24 12 7 11 7 12 6 18 22 14 17 14 9 10 14 10 10 8
50 45 44 37 32 26 21 8 7 4 4 2 8 6 4 7 7 6 8 10 9 7 11 17 28 15 14 12 7 20 6 8 11 9 3 5 13 16 14 16 13 17 21 25
54 50 48 42 39 33 21 23 16 6 7 7 7 6 5 2 4 6 14 14 15 22 21 16 35 42 44 37 22 14 9 9 9 5 6 14 3 9 2 4 6 10 10 8
59 53 52 48 43 39 34 22 14 8 8 15 11 9 11 11 14 17 23 27 24 11 34 42 40 30 26 22 21 24 12 13 6 8 14 2 7 4 5 9 8 9 15 7
64 59 56 51 49 46 44 31 22 11 10 18 13 20 18 16 16 14 20 27 16 26 24 9 11 7 9 4 2 11 15 9 6 6 6 4 3 5 6 8 8 12 5 4
68 62 58 56 54 48 46 39 32 19 10 15 16 12 12 10 8 7 7 9 16 5 6 6 6 6 8 4 5 6 5 11 8 4 3 3 5 2 2 4 7 7 2 7
68 63 62 60 57 51 45 37 38 29 14 19 18 12 8 11 5 5 6 8 4 3 4 7 7 9 4 7 6 5 5 6 11 9 6 2 3 4 3 2 8 4 0 6
70 68 65 63 59 52 47 45 37 42 16 22 25 31 17 11 9 7 2 6 4 5 7 4 3 5 3 8 6 4 5 6 6 4 4 2 2 2 4 4 3 2 2 6
74 70 66 63 60 55 47 42 40 43 25 12 21 38 38 31 18 14 4 4 6 4 4 3 4 6 5 5 6 4 6 4 5 7 5 4 9 13 10 8 5 3 4 7
77 72 66 65 62 54 49 46 39 40 22 27 33 36 42 38 30 29 15 9 10 4 3 1 2 11 3 7 7 9 5 1 6 7 5 4 8 12 13 16 18 14 11 10
81 72 69 67 58 51 50 48 40 45 12 7 11 22 20 19 26 46 45 20 12 9 2 6 6 6 7 6 7 6 6 6 4 11 19 7 2 11 28 25 16 18 16 12
84 76 73 67 57 50 44 41 40 47 26 4 8 20 19 26 25 21 34 43 32 21 13 11 8 8 8 19 8 23 28 20 11 10 3 7 20 16 40 34 21 17 18 19
89 78 75 69 61 54 47 23 47 51 46 4 5 9 12 17 20 34 27 29 27 22 14 12 12 18 8 8 13 14 38 50 50 44 17 17 32 40 31 25 18 19 22 21
90 81 78 70 67 66 61 20 14 59 45 9 7 7 7 16 17 19 17 26 15 21 13 14 21 15 13 10 27 33 38 34 32 34 26 27 19 10 22 15 14 23 26 26
90 83 77 70 68 70 56 21 12 57 34 12 5 5 5 18 10 10 15 15 17 16 17 7 12 14 16 11 19 33 51 60 64 69 61 47 42 44 27 20 23 32 34 37
87 86 76 70 63 43 48 30 35 59 18 14 11 7 6 19 8 8 12 11 9 7 10 11 11 11 15 28 39 40 38 28 31 33 38 42 43 34 26 25 33 35 41 44
99 92 57 19 33 52 54 36 35 24 21 12 12 13 8 16 14 10 11 7 5 5 9 6 8 16 62 60 57 55 56 52 48 38 33 34 33 34 34 35 36 38 45 48
94 40 24 55 74 44 22 14 14 16 8 19 24 40 15 18 9 7 11 5 6 5 4 6 7 8 12 17 27 32 38 48 62 61 54 36 39 34 34 37 41 45 49 51
91 56 81 59 22 13 12 11 12 12 16 23 22 23 46 14 10 6 11 7 5 10 4 6 7 8 18 31 41 44 37 39 42 54 53 47 35 18 25 38 50 51 53 53
99 46 20 19 15 14 20 27 12 15 23 27 30 19 25 14 9 7 7 9 11 5 7 8 10 14 29 38 41 56 44 39 36 45 46 47 54 44 32 44 54 58 57 54
23 22 22 17 17 20 14 21 19 21 36 59 56 34 15 12 10 8 8 8 3 7 8 11 6 20 34 39 42 39 39 29 29 42 45 47 45 44 44 56 64 65 61 55
16 21 18 20 14 15 43 57 39 36 74 74 37 15 11 9 9 7 7 10 12 12 8 4 15 27 30 36 38 28 23 14 15 30 40 39 46 53 59 63 65 62 58 53
24 17 14 24 24 14 42 48 46 68 82 61 15 11 11 10 10 11 15 9 13 5 6 12 15 22 26 36 34 26 18 11 16 25 36 48 56 65 71 69 64 57 52 46
21 12 24 33 38 53 58 50 54 79 76 16 12 13 12 12 9 13 9 10 7 17 9 6 8 19 28 29 23 23 25 26 25 33 42 53 64 73 74 71 63 55 46 37
Wind_Direction_850mb
250 256 264 272 282 303 328 329 283 299 320 268 316 267 282 316 290 272 280 273 277 288 322 298 295 313 333 1 322 312 183 312 140 285 318 285 282 312 291 288 125 31 360 41
244 249 254 259 267 285 317 302 268 297 301 286 285 289 272 267 281 299 303 280 357 300 292 299 274 317 358 4 327 326 321 186 288 190 354 119 296 320 327 49 327 92 116 77
241 244 248 251 252 261 274 278 269 203 78 148 278 307 288 277 265 272 297 299 279 326 285 250 299 306 322 332 324 303 298 271 281 310 314 276 298 287 270 296 283 143 248 292
238 239 242 241 238 239 220 215 241 258 271 202 221 257 299 289 294 245 267 171 69 360 302 309 265 314 322 316 345 335 297 289 299 288 290 278 274 293 275 252 279 275 352 297
233 234 236 232 228 222 207 209 201 225 200 212 244 199 217 260 278 276 276 271 327 306 279 295 300 317 322 307 297 335 333 283 306 312 92 336 285 284 280 276 277 270 283 289
232 232 231 228 224 212 206 211 221 219 184 190 220 236 210 230 260 247 265 299 316 301 313 303 289 284 273 270 287 300 291 303 309 300 291 305 206 24 303 296 268 293 270 26
230 227 228 224 220 215 211 206 191 195 244 218 225 216 221 221 237 274 290 290 286 300 308 305 280 262 259 249 241 233 283 294 281 297 308 67 40 335 305 293 314 314 273 319
230 226 225 222 219 214 212 219 204 190 262 230 223 223 246 268 264 254 261 286 269 294 306 288 289 245 204 144 133 205 229 281 282 295 313 11 107 29 11 359 27 354 326 114
227 224 223 220 217 213 213 217 221 218 264 233 237 191 212 256 264 253 230 288 306 317 275 270 271 288 335 254 187 108 194 244 272 275 279 65 35 56 188 215 62 28 341 172
223 219 219 217 215 212 213 221 224 216 240 246 195 205 201 172 170 262 290 324 284 346 231 249 250 252 316 274 267 190 193 213 235 243 269 252 345 287 245 304 30 8 263 182
220 216 215 214 212 210 214 226 224 214 228 250 233 235 207 192 210 241 64 268 182 229 234 268 280 268 358 287 289 261 251 203 207 166 244 153 118 229 332 45 13 311 271 207
217 214 212 211 208 209 214 220 220 219 225 258 248 241 241 236 228 200 198 310 303 312 260 204 288 260 243 299 272 185 248 294 332 236 84 24 306 279 289 287 293 308 282 258
214 212 208 206 205 208 214 217 209 208 232 266 255 253 258 245 244 231 224 227 226 220 170 309 305 262 259 256 239 296 180 226 253 295 158 228 323 332 322 277 260 261 271 254
212 207 205 201 202 204 209 209 209 210 187 250 251 254 257 246 235 225 221 229 190 182 163 267 253 248 208 262 322 274 313 286 241 270 272 259 160 11 349 333 293 249 238 222
209 205 203 198 199 197 199 209 215 214 203 212 278 299 253 236 236 226 220 216 223 237 237 236 235 252 258 249 270 241 222 226 219 240 166 302 294 312 318 312 296 236 208 190
205 202 200 195 191 187 180 205 221 212 212 229 280 255 244 235 218 216 209 204 206 214 217 237 239 241 253 255 257 285 242 242 251 258 254 251 293 302 305 292 271 211 190 181
202 199 195 191 190 186 177 190 205 198 186 185 259 253 227 221 207 189 190 192 196 210 227 237 243 238 221 253 257 276 275 269 259 260 250 270 284 294 306 286 235 188 178 170
197 193 189 189 188 190 188 176 192 172 168 180 238 232 231 188 180 159 169 179 191 217 232 226 229 243 224 255 247 244 253 254 257 256 254 262 279 285 277 246 206 183 173 166
189 185 182 183 186 182 183 176 168 171 175 188 192 198 198 173 155 138 162 183 187 188 230 229 221 223 230 236 244 245 248 243 251 267 259 248 256 258 242 218 191 183 171 166
182 174 165 176 171 168 167 152 172 177 215 220 210 187 185 174 170 159 152 181 232 227 211 198 230 251 254 259 264 268 264 260 261 261 245 244 232 234 219 209 194 188 177 168
162 166 152 146 146 146 157 172 176 187 216 204 200 194 147 187 175 155 189 159 172 246 151 242 238 257 254 283 288 286 280 266 255 252 248 244 247 222 203 199 191 184 177 170
173 152 134 134 138 149 166 186 183 197 204 181 181 183 195 158 161 145 169 202 181 243 144 245 252 244 272 318 321 319 301 285 261 242 239 231 208 226 232 201 184 179 173 171
140 134 160 140 160 182 198 182 177 186 172 165 153 136 152 151 171 125 164 185 219 140 222 231 238 266 311 316 314 313 306 285 260 240 229 226 228 229 224 194 179 176 171 169
139 152 142 190 184 214 189 176 144 161 151 147 146 135 140 146 170 151 205 193 165 233 234 231 229 296 308 321 323 317 316 292 254 226 212 220 220 210 200 186 176 173 169 167
127 133 192 194 171 146 161 150 142 154 148 145 140 112 118 133 155 198 171 186 226 226 236 217 305 306 308 322 341 341 333 303 227 197 190 195 200 184 171 170 170 170 166 163
154 180 153 153 140 144 163 162 144 150 150 144 132 140 152 179 165 165 208 202 221 214 212 254 305 312 319 349 353 7 19 79 123 148 161 167 166 163 160 162 165 166 166 164
161 179 162 156 137 159 164 154 151 157 153 151 141 143 169 127 177 190 186 212 189 170 208 264 311 345 4 3 17 33 44 68 101 127 141 150 155 157 156 156 160 162 160 160